Location: Sommers-Bausch Observatory
(40.0037°N, 105.2635°W)
Time: 14:27:28
(UTC-06:00)

Amateur Radio Satellites - All Passes

Search period start: 28 June 2016 13:57
Search period end: 29 June 2016 13:57
Location: Sommers-Bausch Observatory, 40.0037°N, 105.2635°W

Satellite Date Start Highest point End Downlink Frequencies (MHz)
Time Altitude Azimuth
ESTCUBE 1 28 Jun 14:03:29 14:05:05 12° 298° (WNW) 14:06:41 437.505/2401.250
RS-15 28 Jun 14:04:22 14:15:15 45° 317° (NW) 14:26:45 29.354- 29.394
AISAT 28 Jun 14:07:22 14:09:54 15° 296° (WNW) 14:12:25 437.250
UKube-1 28 Jun 14:07:30 14:10:55 23° 293° (WNW) 14:14:19 .
SPROUT 28 Jun 14:09:04 14:12:47 29° 290° (WNW) 14:16:30 437.525
SWISSCUBE 28 Jun 14:17:17 14:20:22 17° 92° (E) 14:23:26 437.505
Cosmos 2504 28 Jun 14:19:57 14:27:54 66° 92° (E) 14:36:27 435.465 / 435.565
DX 1 28 Jun 14:28:34 14:30:19 12° 298° (WNW) 14:32:03 434.975-435.025
ISS 28 Jun 14:34:52 14:37:40 25° 26° (NNE) 14:40:26 145.825
JAS-2 28 Jun 14:37:04 14:41:54 18° 269° (W) 14:46:32 435.910
AO-7 28 Jun 14:39:41 14:47:03 37° 60° (ENE) 14:54:26 29.400- 29.500
BEESAT 28 Jun 14:41:48 14:45:53 27° 96° (E) 14:49:56 436.000
ITUPSAT 1 28 Jun 14:42:46 14:46:51 27° 96° (E) 14:50:55 437.325
AIST 2 28 Jun 14:52:35 14:56:31 42° 244° (WSW) 15:00:26 435.215
Oscar 19 28 Jun 14:56:04 14:59:31 18° 268° (W) 15:02:58 437.125/150
YUBILEINY 28 Jun 15:05:48 15:12:35 25° 293° (WNW) 15:19:27 435.215
Gurwin Techsat 1B 28 Jun 15:10:49 15:15:28 31° 264° (W) 15:20:09 435.225
ITAMSAT 1 28 Jun 15:16:06 15:21:17 73° 257° (WSW) 15:26:32 435.822/435.867
TISAT 1 28 Jun 15:30:43 15:33:14 16° 295° (WNW) 15:35:44 437.305
SO-50 28 Jun 15:33:11 15:37:32 33° 114° (ESE) 15:41:54 436.795
SWISSCUBE 28 Jun 15:53:48 15:58:25 49° 289° (WNW) 16:03:01 437.505
HORYU 2 28 Jun 15:56:12 15:58:56 16° 64° (ENE) 16:01:39 437.375
STARS 28 Jun 16:06:28 16:07:50 11° 91° (E) 16:09:11 437.465
ISS 28 Jun 16:11:05 16:14:13 42° 222° (SW) 16:17:19 145.825
Cosmos 2504 28 Jun 16:15:23 16:22:01 26° 293° (WNW) 16:29:00 435.465 / 435.565
BEESAT 28 Jun 16:19:26 16:23:38 31° 292° (WNW) 16:27:47 436.000
ITUPSAT 1 28 Jun 16:20:26 16:24:39 31° 292° (WNW) 16:28:49 437.325
RS-15 28 Jun 16:23:33 16:32:08 22° 350° (N) 16:40:57 29.354- 29.394
AO-7 28 Jun 16:31:27 16:39:30 52° 258° (WSW) 16:47:38 29.400- 29.500
NOAA 15 28 Jun 16:47:53 16:50:34 14° 60° (ENE) 16:53:14 137.62
MOZHAYETS 4 28 Jun 16:58:10 17:02:50 83° 102° (ESE) 17:07:28
KKS-1 28 Jun 17:08:03 17:12:29 71° 286° (WNW) 17:16:55 437.445
GONETS M04 28 Jun 17:12:16 17:17:12 17° 77° (ENE) 17:22:06
AIST 1 28 Jun 17:12:45 17:16:57 53° 94° (E) 17:21:10
SO-50 28 Jun 17:13:36 17:18:00 32° 311° (NW) 17:22:23 436.795
NOAA 18 28 Jun 17:17:53 17:22:02 22° 63° (ENE) 17:26:11 137.9125
Cubesat XI-IV 28 Jun 17:23:30 17:27:28 22° 64° (ENE) 17:31:28 437.490
HORYU 2 28 Jun 17:30:49 17:35:05 48° 260° (W) 17:39:24 437.375
STARS 28 Jun 17:40:12 17:44:34 63° 286° (WNW) 17:48:55 437.465
BRITE-PL 28 Jun 17:51:09 17:56:00 47° 73° (ENE) 18:00:30 437.365/2234.400
CUTE-I 28 Jun 17:56:35 18:01:34 42° 70° (ENE) 18:06:37 437.470
HO-68 28 Jun 18:02:38 18:03:37 10° 49° (NE) 18:04:36 435.675
CUSAT 1 28 Jun 18:19:51 18:22:48 23° 70° (ENE) 18:25:17 437.405
NOAA 15 28 Jun 18:24:22 18:29:40 78° 257° (WSW) 18:34:58 137.62
GOMX 1 28 Jun 18:24:57 18:29:20 44° 73° (ENE) 18:33:30 467.674
CUBESAT XI-V 28 Jun 18:25:50 18:30:29 82° 104° (ESE) 18:35:04 437.345
MOZHAYETS 4 28 Jun 18:38:22 18:39:17 11° 299° (WNW) 18:40:13
RS-15 28 Jun 18:40:35 18:50:34 28° 26° (NNE) 19:00:36 29.354- 29.394
LilacSat-2 28 Jun 18:41:03 18:44:49 71° 259° (W) 18:48:37 437.200
DANDE 28 Jun 18:42:53 18:46:36 21° 65° (ENE) 18:49:38 436.750
AIST 1 28 Jun 18:53:04 18:54:54 12° 290° (WNW) 18:56:44
Cosmos 2499 28 Jun 18:56:00 19:04:00 56° 90° (E) 19:12:31 435.465 / 435.565
NOAA 18 28 Jun 18:57:02 19:02:18 49° 260° (W) 19:07:39 137.9125
Cubesat XI-IV 28 Jun 19:02:00 19:07:10 49° 261° (W) 19:12:23 437.490
GONETS M04 28 Jun 19:03:58 19:12:41 89° 103° (ESE) 19:21:26
DOVE 4 28 Jun 19:24:43 19:29:06 89° 48° (NE) 19:33:18 437.250
BRITE-PL 28 Jun 19:31:10 19:34:37 18° 266° (W) 19:37:55 437.365/2234.400
CANX-2 28 Jun 19:35:05 19:38:53 32° 70° (ENE) 19:42:42 2200.000
CUTE-I 28 Jun 19:37:32 19:41:46 24° 266° (W) 19:46:02 437.470
COMPASS 1 28 Jun 19:37:55 19:40:23 15° 65° (ENE) 19:42:51 437.405
HO-68 28 Jun 19:42:51 19:49:46 56° 68° (ENE) 19:56:45 435.675
STRAND 1 28 Jun 19:48:46 19:53:34 38° 98° (E) 19:58:20 437.568
CUTE 1.7 + AOD 2 28 Jun 19:54:44 19:58:48 45° 73° (ENE) 20:02:56 437.475
SEEDS 28 Jun 19:58:41 20:02:34 36° 71° (ENE) 20:06:29 437.485
CUSAT 1 28 Jun 20:03:14 20:04:24 11° 277° (W) 20:05:30 437.405
GOMX 1 28 Jun 20:04:45 20:07:36 16° 267° (W) 20:10:22 467.674
CUBESAT XI-V 28 Jun 20:06:15 20:07:09 11° 299° (WNW) 20:08:04 437.345
CUBEBUG 2 28 Jun 20:16:12 20:19:40 26° 69° (ENE) 20:23:12 437.445
CINEMA 3 28 Jun 20:19:27 20:23:35 81° 259° (WSW) 20:27:46 145.822/145.860
AUBIESAT-1 28 Jun 20:21:02 20:23:34 21° 64° (ENE) 20:26:07 437.475
DANDE 28 Jun 20:25:31 20:29:28 26° 274° (W) 20:32:37 436.750
AAUSAT CUBESAT 2 28 Jun 20:37:07 20:41:13 55° 74° (ENE) 20:45:20 437.432
ZACube-1 28 Jun 20:41:57 20:45:16 23° 68° (ENE) 20:48:38 437.345
DELFI C3 28 Jun 20:49:50 20:51:43 13° 65° (ENE) 20:53:36 145.870
Cosmos 2499 28 Jun 20:50:18 20:57:33 32° 291° (WNW) 21:05:11 435.465 / 435.565
Oscar 11 28 Jun 20:50:56 20:54:46 32° 70° (ENE) 20:58:39 145.826/435.025
RS-15 28 Jun 20:53:29 21:05:51 70° 54° (NE) 21:18:05 29.354- 29.394
FUNcube-1 28 Jun 20:58:53 21:02:38 32° 71° (ENE) 21:06:29 145.935
M-CUBED/EXP-1 PRIME 28 Jun 20:59:44 21:03:00 87° 253° (WSW) 21:06:16 437.505
UWE-3 28 Jun 21:02:27 21:06:33 59° 75° (ENE) 21:10:47 435.000/436.395/437.385
AO-85 28 Jun 21:03:41 21:08:28 32° 113° (ESE) 21:13:09 145.980
GONETS M04 28 Jun 21:05:04 21:10:44 19° 297° (WNW) 21:16:26
CANX-2 28 Jun 21:11:30 21:14:46 21° 266° (W) 21:18:03 2200.000
COMPASS 1 28 Jun 21:11:31 21:15:33 45° 261° (W) 21:19:37 437.405
PRISM 28 Jun 21:24:18 21:28:19 55° 101° (E) 21:32:18 437.425
STRAND 1 28 Jun 21:28:21 21:32:32 25° 294° (WNW) 21:36:41 437.568
HO-68 28 Jun 21:31:56 21:37:48 27° 265° (W) 21:43:43 435.675
CUTE 1.7 + AOD 2 28 Jun 21:32:29 21:34:53 15° 269° (W) 21:37:17 437.475
SEEDS 28 Jun 21:35:25 21:38:22 18° 267° (W) 21:41:21 437.485
HUMSAT D 28 Jun 21:52:42 21:56:23 31° 71° (ENE) 22:00:08 437.325/437.525
CUBEBUG 2 28 Jun 21:52:51 21:56:14 24° 265° (W) 21:59:43 437.445
AUBIESAT-1 28 Jun 21:55:39 21:58:02 19° 260° (W) 22:00:26 437.475
TIGRISAT 28 Jun 22:13:27 22:15:42 13° 91° (E) 22:17:57 435.000
AAUSAT CUBESAT 2 28 Jun 22:15:32 22:17:01 12° 270° (W) 22:18:31 437.432
ZACube-1 28 Jun 22:17:45 22:21:24 29° 264° (W) 22:25:08 437.345
UNISAT 6 28 Jun 22:18:07 22:21:01 16° 92° (E) 22:23:54 437.425
DELFI C3 28 Jun 22:22:13 22:26:07 49° 260° (W) 22:30:03 145.870
Oscar 11 28 Jun 22:27:35 22:30:56 22° 266° (W) 22:34:18 145.826/435.025
FUNcube-1 28 Jun 22:35:53 22:38:58 20° 267° (W) 22:42:06 145.935
CUBEBUG 1 28 Jun 22:38:57 22:40:57 13° 63° (ENE) 22:42:58 437.445
UWE-3 28 Jun 22:42:31 22:43:26 11° 271° (W) 22:44:23 435.000/436.395/437.385
AO-85 28 Jun 22:43:52 22:48:54 38° 309° (NW) 22:53:46 145.980
VELOX 1 28 Jun 22:47:09 22:49:42 15° 64° (ENE) 22:52:15 145.980
ANTELSAT 28 Jun 22:56:43 23:01:07 41° 98° (E) 23:05:33 437.575/2403.000
50 SAT 28 Jun 22:59:04 23:01:39 18° 68° (ENE) 23:04:14 437.505
PRISM 28 Jun 23:01:33 23:03:08 12° 297° (WNW) 23:04:44 437.425
RS-15 28 Jun 23:06:57 23:17:29 35° 256° (WSW) 23:27:54 29.354- 29.394
YUBILEINY 28 Jun 23:17:43 23:25:33 34° 71° (ENE) 23:33:20 435.215
ESTCUBE 1 28 Jun 23:22:55 23:27:22 58° 74° (ENE) 23:31:51 437.505/2401.250
UKube-1 28 Jun 23:25:21 23:28:49 24° 68° (ENE) 23:32:17 .
AISAT 28 Jun 23:26:10 23:30:18 41° 71° (ENE) 23:34:25 437.250
SPROUT 28 Jun 23:27:08 23:29:50 17° 66° (ENE) 23:32:33 437.525
HUMSAT D 28 Jun 23:28:56 23:32:03 20° 266° (W) 23:35:12 437.325/437.525
DX 1 28 Jun 23:45:00 23:49:11 49° 72° (ENE) 23:53:23 434.975-435.025
TIGRISAT 28 Jun 23:48:08 23:52:43 60° 286° (WNW) 23:57:20 435.000
UNISAT 6 28 Jun 23:53:28 23:57:57 50° 287° (WNW) 00:02:29 437.425
NANOSAT C BR1 29 Jun 00:02:14 00:06:02 31° 97° (E) 00:09:48 145.865
SO-50 29 Jun 00:05:16 00:09:12 26° 47° (NE) 00:13:02 436.795
QB50P1 29 Jun 00:05:19 00:09:15 36° 98° (E) 00:13:11 145.935-145.965
POPSAT HIP 1 29 Jun 00:08:32 00:12:32 38° 99° (E) 00:16:30 437.405
CUBEBUG 1 29 Jun 00:12:27 00:16:45 58° 259° (W) 00:21:03 437.445
Cosmos 2504 29 Jun 00:14:09 00:21:07 25° 66° (ENE) 00:27:52 435.465 / 435.565
QB50P2 29 Jun 00:20:47 00:25:00 58° 101° (E) 00:29:12 145.880/145.840
VELOX 1 29 Jun 00:21:27 00:25:44 50° 260° (W) 00:30:02 145.980
DUCHIFAT 1 29 Jun 00:22:23 00:26:32 50° 100° (E) 00:30:39 145.980
POLYITAN 1 29 Jun 00:23:24 00:27:38 59° 101° (E) 00:31:52 437.675
Cosmos 2491 29 Jun 00:26:25 00:34:38 46° 88° (E) 00:42:48 435.465 / 435.565
50 SAT 29 Jun 00:31:52 00:35:07 28° 263° (W) 00:38:23 437.505
ANTELSAT 29 Jun 00:34:07 00:37:32 21° 294° (WNW) 00:40:58 437.575/2403.000
TISAT 1 29 Jun 00:45:03 00:48:41 30° 70° (ENE) 00:52:20 437.305
UKube-1 29 Jun 01:00:59 01:04:43 29° 263° (W) 01:08:29 .
SPROUT 29 Jun 01:01:26 01:05:27 41° 261° (W) 01:09:29 437.525
ESTCUBE 1 29 Jun 01:02:30 01:04:32 13° 269° (W) 01:06:33 437.505/2401.250
AISAT 29 Jun 01:04:01 01:06:56 17° 267° (W) 01:09:51 437.250
PCSat 29 Jun 01:10:56 01:14:18 17° 104° (ESE) 01:17:40 145.827
YUBILEINY 29 Jun 01:14:09 01:22:37 53° 270° (W) 01:31:04 435.215
BUGSAT 1 29 Jun 01:16:46 01:20:52 85° 285° (WNW) 01:25:01 437.445
SWISSCUBE 29 Jun 01:23:13 01:26:35 19° 64° (ENE) 01:29:58 437.505
DX 1 29 Jun 01:23:21 01:25:38 14° 268° (W) 01:27:56 434.975-435.025
Oscar 19 29 Jun 01:28:02 01:31:38 19° 93° (E) 01:35:12 437.125/150
NANOSAT C BR1 29 Jun 01:38:20 01:41:34 22° 293° (WNW) 01:44:48 145.865
QB50P1 29 Jun 01:41:45 01:44:46 19° 293° (WNW) 01:47:48 145.935-145.965
POPSAT HIP 1 29 Jun 01:45:06 01:48:01 18° 294° (WNW) 01:50:55 437.405
JAS-2 29 Jun 01:45:09 01:50:47 78° 103° (ESE) 01:56:00 435.910
SO-50 29 Jun 01:45:30 01:49:47 37° 245° (WSW) 01:53:56 436.795
BEESAT 29 Jun 01:47:32 01:51:40 30° 68° (ENE) 01:55:49 436.000
BEESAT 3 29 Jun 01:47:48 01:50:15 16° 110° (ESE) 01:52:42 437.485
ITUPSAT 1 29 Jun 01:48:50 01:52:59 30° 68° (ENE) 01:57:10 437.325
Gurwin Techsat 1B 29 Jun 01:49:16 01:51:39 13° 90° (E) 01:54:01 435.225
QB50P2 29 Jun 01:58:26 02:00:18 13° 296° (WNW) 02:02:10 145.880/145.840
DUCHIFAT 1 29 Jun 01:59:32 02:01:47 14° 295° (WNW) 02:04:02 145.980
POLYITAN 1 29 Jun 02:01:07 02:02:55 12° 297° (WNW) 02:04:44 437.675
O/OREOS (USA 219) 29 Jun 02:04:43 02:07:58 20° 101° (E) 02:11:13 437.305
Cosmos 2504 29 Jun 02:06:30 02:15:22 73° 267° (W) 02:23:48 435.465 / 435.565
TISAT 1 29 Jun 02:21:11 02:24:21 21° 265° (W) 02:27:32 437.305
Cosmos 2491 29 Jun 02:23:35 02:31:33 38° 288° (WNW) 02:39:33 435.465 / 435.565
BEESAT 2 29 Jun 02:25:44 02:28:53 23° 112° (ESE) 02:32:04 435.950
PCSat 29 Jun 02:51:45 02:57:07 64° 301° (WNW) 03:02:32 145.827
SWISSCUBE 29 Jun 02:59:26 03:04:01 46° 260° (W) 03:08:39 437.505
STARS 29 Jun 03:04:09 03:04:29 10° 61° (ENE) 03:04:49 437.465
Oscar 19 29 Jun 03:06:16 03:11:12 49° 289° (WNW) 03:16:06 437.125/150
AIST 1 29 Jun 03:22:07 03:23:58 12° 70° (ENE) 03:25:48
BEESAT 3 29 Jun 03:23:53 03:27:36 41° 307° (NW) 03:31:21 437.485
BEESAT 29 Jun 03:25:18 03:29:23 28° 264° (W) 03:33:31 436.000
ITUPSAT 1 29 Jun 03:26:40 03:30:46 28° 264° (W) 03:34:54 437.325
Gurwin Techsat 1B 29 Jun 03:26:48 03:32:08 74° 286° (WNW) 03:37:25 435.225
ITAMSAT 1 29 Jun 03:29:45 03:34:42 42° 99° (E) 03:39:37 435.822/435.867
JAS-2 29 Jun 03:32:21 03:35:01 14° 303° (WNW) 03:37:36 435.910
O/OREOS (USA 219) 29 Jun 03:42:55 03:47:05 37° 297° (WNW) 03:51:16 437.305
MOZHAYETS 4 29 Jun 03:59:00 04:03:35 72° 75° (ENE) 04:08:13
BEESAT 2 29 Jun 04:03:04 04:06:34 30° 309° (NW) 04:10:08 435.950
Cosmos 2504 29 Jun 04:03:30 04:07:01 13° 286° (WNW) 04:10:31 435.465 / 435.565
KKS-1 29 Jun 04:05:06 04:09:31 85° 257° (WSW) 04:13:58 437.445
AO-7 29 Jun 04:33:23 04:41:38 58° 103° (ESE) 04:49:49 29.400- 29.500
STARS 29 Jun 04:35:50 04:40:10 78° 256° (WSW) 04:44:34 437.465
PCSat 29 Jun 04:39:39 04:41:37 12° 321° (NW) 04:43:36 145.827
AIST 2 29 Jun 04:49:06 04:53:01 44° 116° (ESE) 04:56:57 435.215
Cosmos 2499 29 Jun 04:49:25 04:55:31 20° 63° (ENE) 05:01:24 435.465 / 435.565
AIST 1 29 Jun 04:57:46 05:01:53 51° 267° (W) 05:06:01
ITAMSAT 1 29 Jun 05:09:46 05:13:54 24° 295° (WNW) 05:18:01 435.822/435.867
GONETS M04 29 Jun 05:15:14 05:23:28 43° 74° (ENE) 05:31:40
HORYU 2 29 Jun 05:22:22 05:26:25 32° 97° (E) 05:30:27 437.375
CUBESAT XI-V 29 Jun 05:28:02 05:32:43 73° 75° (ENE) 05:37:25 437.345
AO-85 29 Jun 05:36:43 05:40:15 22° 44° (NE) 05:43:35 145.980
MOZHAYETS 4 29 Jun 05:40:13 05:41:13 11° 271° (W) 05:42:14
BRITE-PL 29 Jun 05:58:16 05:59:58 12° 91° (E) 06:01:40 437.365/2234.400
PHONESAT 2.4 29 Jun 06:07:11 06:09:16 17° 150° (SSE) 06:11:21 2401.200-2431.200
CUTE-I 29 Jun 06:15:15 06:18:47 18° 92° (E) 06:22:17 437.470
LilacSat-2 29 Jun 06:16:35 06:18:27 13° 92° (E) 06:20:19 437.200
AO-7 29 Jun 06:26:47 06:33:58 33° 302° (WNW) 06:41:09 29.400- 29.500
GOMX 1 29 Jun 06:28:40 06:30:21 12° 92° (E) 06:32:03 467.674
AIST 2 29 Jun 06:28:41 06:31:42 19° 314° (NW) 06:34:44 435.215
NOAA 15 29 Jun 06:40:21 06:45:19 41° 99° (E) 06:50:14 137.62
Cosmos 2499 29 Jun 06:41:02 06:49:52 86° 265° (W) 06:58:06 435.465 / 435.565
HORYU 2 29 Jun 06:59:14 07:02:48 23° 293° (WNW) 07:06:21 437.375
STRAND 1 29 Jun 07:03:49 07:08:47 52° 72° (ENE) 07:13:47 437.568
CUBESAT XI-V 29 Jun 07:09:28 07:10:34 11° 271° (W) 07:11:40 437.345
GONETS M04 29 Jun 07:12:16 07:20:09 40° 273° (W) 07:28:05
AO-85 29 Jun 07:16:45 07:20:56 42° 245° (WSW) 07:24:47 145.980
CUSAT 1 29 Jun 07:17:00 07:24:29 51° 94° (E) 07:30:51 437.405
NOAA 18 29 Jun 07:19:23 07:24:58 74° 103° (ESE) 07:30:31 137.9125
Cubesat XI-IV 29 Jun 07:19:37 07:25:02 71° 102° (ESE) 07:30:23 437.490
DOVE 4 29 Jun 07:24:01 07:27:34 24° 96° (E) 07:31:15 437.250
BRITE-PL 29 Jun 07:34:46 07:38:46 48° 286° (WNW) 07:42:48 437.365/2234.400
PHONESAT 2.4 29 Jun 07:42:29 07:45:32 65° 165° (SSE) 07:48:35 2401.200-2431.200
DANDE 29 Jun 07:45:06 07:52:57 45° 91° (E) 08:00:16 436.750
LilacSat-2 29 Jun 07:49:17 07:52:57 41° 287° (WNW) 07:56:37 437.200
CUTE-I 29 Jun 07:53:54 07:59:11 57° 288° (WNW) 08:04:25 437.470
GOMX 1 29 Jun 08:04:37 08:08:44 53° 286° (WNW) 08:13:00 467.674
PRISM 29 Jun 08:12:57 08:16:46 36° 71° (ENE) 08:20:35 437.425
CINEMA 3 29 Jun 08:14:26 08:18:16 25° 96° (E) 08:22:12 145.822/145.860
NOAA 15 29 Jun 08:20:40 08:24:50 24° 295° (WNW) 08:28:59 137.62
Cosmos 2499 29 Jun 08:36:46 08:41:30 16° 284° (WNW) 08:46:07 435.465 / 435.565
STRAND 1 29 Jun 08:44:45 08:48:14 18° 267° (W) 08:51:44 437.568
ISS 29 Jun 08:49:41 08:52:56 81° 141° (SE) 08:56:13 145.825
UWE-3 29 Jun 08:53:55 08:56:20 14° 91° (E) 08:58:47 435.000/436.395/437.385
COMPASS 1 29 Jun 08:55:12 08:58:50 28° 96° (E) 09:02:25 437.405
CANX-2 29 Jun 08:55:54 09:00:12 70° 101° (E) 09:04:27 2200.000
HO-68 29 Jun 08:58:31 09:05:40 62° 102° (ESE) 09:12:46 435.675
CUSAT 1 29 Jun 09:00:02 09:06:38 31° 287° (WNW) 09:12:22 437.405
Cubesat XI-IV 29 Jun 09:01:20 09:04:28 16° 299° (WNW) 09:07:36 437.490
DOVE 4 29 Jun 09:01:29 09:05:15 30° 289° (WNW) 09:09:12 437.250
NOAA 18 29 Jun 09:01:44 09:04:58 16° 300° (WNW) 09:08:12 137.9125
TIGRISAT 29 Jun 09:13:26 09:14:13 10° 61° (ENE) 09:15:00 435.000
CUTE 1.7 + AOD 2 29 Jun 09:15:46 09:20:05 80° 282° (WNW) 09:24:20 437.475
UNISAT 6 29 Jun 09:17:37 09:19:32 13° 63° (ENE) 09:21:27 437.425
SEEDS 29 Jun 09:18:21 09:22:37 78° 102° (ESE) 09:26:49 437.485
PHONESAT 2.4 29 Jun 09:19:04 09:22:09 79° 359° (N) 09:25:14 2401.200-2431.200
DANDE 29 Jun 09:27:57 09:35:47 42° 286° (WNW) 09:43:02 436.750
AUBIESAT-1 29 Jun 09:33:12 09:36:20 21° 101° (E) 09:39:37 437.475
CUBEBUG 2 29 Jun 09:42:45 09:47:22 69° 101° (E) 09:52:04 437.445
PRISM 29 Jun 09:49:24 09:52:11 17° 266° (W) 09:54:58 437.425
CINEMA 3 29 Jun 09:51:21 09:55:22 31° 289° (WNW) 09:59:32 145.822/145.860
ANTELSAT 29 Jun 09:55:09 09:58:57 31° 70° (ENE) 10:02:51 437.575/2403.000
AAUSAT CUBESAT 2 29 Jun 09:55:19 09:59:29 71° 284° (WNW) 10:03:35 437.432
PCSat 29 Jun 09:58:20 10:01:29 15° 42° (NE) 10:04:37 145.827
DELFI C3 29 Jun 10:01:06 10:04:08 21° 94° (E) 10:07:09 145.870
ZACube-1 29 Jun 10:05:42 10:10:11 54° 100° (E) 10:14:41 437.345
BEESAT 3 29 Jun 10:06:05 10:07:05 11° 40° (NE) 10:08:05 437.485
M-CUBED/EXP-1 PRIME 29 Jun 10:12:32 10:16:29 76° 108° (ESE) 10:20:44 437.505
Oscar 11 29 Jun 10:14:09 10:18:31 71° 102° (ESE) 10:22:50 145.826/435.025
FUNcube-1 29 Jun 10:22:46 10:27:20 79° 102° (ESE) 10:31:55 145.935
ISS 29 Jun 10:27:19 10:29:43 19° 339° (NNW) 10:32:08 145.825
UWE-3 29 Jun 10:28:36 10:33:06 56° 286° (WNW) 10:37:39 435.000/436.395/437.385
COMPASS 1 29 Jun 10:30:56 10:34:14 23° 292° (WNW) 10:37:31 437.405
CANX-2 29 Jun 10:34:25 10:35:27 11° 297° (WNW) 10:36:29 2200.000
Cosmos 2491 29 Jun 10:38:08 10:44:30 22° 65° (ENE) 10:50:49 435.465 / 435.565
BEESAT 2 29 Jun 10:44:33 10:46:49 15° 44° (NE) 10:49:05 435.950
TIGRISAT 29 Jun 10:45:57 10:50:14 74° 258° (WSW) 10:54:38 435.000
HO-68 29 Jun 10:47:07 10:52:51 26° 300° (WNW) 10:58:34 435.675
UNISAT 6 29 Jun 10:51:27 10:55:41 60° 259° (W) 11:00:02 437.425
NANOSAT C BR1 29 Jun 10:54:11 10:57:23 22° 68° (ENE) 11:00:36 145.865
PHONESAT 2.4 29 Jun 10:55:43 10:58:44 51° 198° (SSW) 11:01:44 2401.200-2431.200
QB50P1 29 Jun 10:57:26 11:00:50 25° 69° (ENE) 11:04:17 145.935-145.965
POPSAT HIP 1 29 Jun 11:00:39 11:04:08 26° 69° (ENE) 11:07:39 437.405
AUBIESAT-1 29 Jun 11:07:17 11:10:48 31° 293° (WNW) 11:14:30 437.475
HUMSAT D 29 Jun 11:11:35 11:15:54 66° 102° (ESE) 11:20:09 437.325/437.525
QB50P2 29 Jun 11:12:43 11:16:36 38° 72° (ENE) 11:20:32 145.880/145.840
DUCHIFAT 1 29 Jun 11:13:42 11:17:26 33° 71° (ENE) 11:21:11 145.980
POLYITAN 1 29 Jun 11:15:20 11:19:14 39° 72° (ENE) 11:23:10 437.675
RS-15 29 Jun 11:16:03 11:26:34 47° 108° (ESE) 11:37:36 29.354- 29.394
ESTCUBE 1 29 Jun 11:17:58 11:19:58 13° 91° (E) 11:21:58 437.505/2401.250
CUBEBUG 2 29 Jun 11:21:24 11:23:25 13° 297° (WNW) 11:25:29 437.445
ANTELSAT 29 Jun 11:32:23 11:35:42 22° 266° (W) 11:39:07 437.575/2403.000
DELFI C3 29 Jun 11:35:34 11:38:59 27° 290° (WNW) 11:42:22 145.870
PCSat 29 Jun 11:40:13 11:45:41 87° 61° (ENE) 11:51:06 145.827
BEESAT 3 29 Jun 11:41:24 11:45:22 89° 57° (ENE) 11:49:18 437.485
ZACube-1 29 Jun 11:43:23 11:46:00 15° 295° (WNW) 11:48:38 437.345
Oscar 11 29 Jun 11:52:53 11:54:01 11° 298° (WNW) 11:55:09 145.826/435.025
JAS-2 29 Jun 11:54:54 12:01:40 37° 67° (ENE) 12:07:54 435.910
50 SAT 29 Jun 12:01:30 12:04:29 23° 96° (E) 12:07:25 437.505
FUNcube-1 29 Jun 12:01:48 12:02:55 11° 298° (WNW) 12:04:02 145.935
CUBEBUG 1 29 Jun 12:02:01 12:05:38 25° 96° (E) 12:09:13 437.445
BUGSAT 1 29 Jun 12:05:40 12:09:36 58° 74° (ENE) 12:13:33 437.445
ISS 29 Jun 12:06:15 12:07:10 11° 359° (N) 12:08:06 145.825
VELOX 1 29 Jun 12:12:18 12:16:11 30° 97° (E) 12:20:03 145.980
O/OREOS (USA 219) 29 Jun 12:14:05 12:18:12 34° 62° (ENE) 12:22:19 437.305
YUBILEINY 29 Jun 12:18:00 12:25:48 39° 86° (E) 12:33:40 435.215
BEESAT 2 29 Jun 12:21:05 12:25:03 61° 241° (WSW) 12:28:58 435.950
NANOSAT C BR1 29 Jun 12:29:17 12:32:56 30° 263° (W) 12:36:38 145.865
QB50P1 29 Jun 12:33:01 12:36:31 26° 264° (W) 12:40:04 145.935-145.965
PHONESAT 2.4 29 Jun 12:33:30 12:34:54 12° 213° (SSW) 12:36:18 2401.200-2431.200
Cosmos 2491 29 Jun 12:33:36 12:42:19 79° 266° (W) 12:51:01 435.465 / 435.565
POPSAT HIP 1 29 Jun 12:36:26 12:39:51 24° 265° (W) 12:43:18 437.405
Oscar 19 29 Jun 12:44:05 12:48:20 27° 66° (ENE) 12:52:36 437.125/150
SPROUT 29 Jun 12:47:55 12:51:47 32° 97° (E) 12:55:39 437.525
UKube-1 29 Jun 12:48:02 12:52:11 46° 99° (E) 12:56:19 .
HUMSAT D 29 Jun 12:49:27 12:50:56 12° 297° (WNW) 12:52:24 437.325/437.525
QB50P2 29 Jun 12:49:53 12:52:34 17° 267° (W) 12:55:16 145.880/145.840
DUCHIFAT 1 29 Jun 12:50:13 12:53:12 19° 266° (W) 12:56:12 145.980
POLYITAN 1 29 Jun 12:52:35 12:55:12 16° 267° (W) 12:57:50 437.675
ESTCUBE 1 29 Jun 12:52:42 12:57:08 57° 286° (WNW) 13:01:31 437.505/2401.250
AISAT 29 Jun 12:52:54 12:57:18 88° 286° (WNW) 13:01:42 437.250
Cosmos 2504 29 Jun 12:53:24 12:58:38 19° 77° (ENE) 13:04:02 435.465 / 435.565
Gurwin Techsat 1B 29 Jun 13:09:07 13:13:00 21° 64° (ENE) 13:16:54 435.225
DX 1 29 Jun 13:09:37 13:13:57 79° 286° (WNW) 13:18:17 434.975-435.025
AIST 2 29 Jun 13:11:10 13:14:40 25° 49° (NE) 13:18:09 435.215
PCSat 29 Jun 13:26:35 13:28:15 11° 258° (WSW) 13:29:55 145.827
RS-15 29 Jun 13:27:36 13:38:47 55° 312° (NW) 13:50:39 29.354- 29.394
50 SAT 29 Jun 13:35:12 13:38:03 21° 291° (WNW) 13:40:52 437.505
CUBEBUG 1 29 Jun 13:38:14 13:41:51 27° 291° (WNW) 13:45:27 437.445
JAS-2 29 Jun 13:39:17 13:46:31 44° 262° (W) 13:53:13 435.910
ISS 29 Jun 13:42:19 13:44:39 18° 20° (NNE) 13:46:59 145.825
AO-7 29 Jun 13:43:27 13:48:13 17° 49° (NE) 13:52:58 29.400- 29.500
VELOX 1 29 Jun 13:49:01 13:52:30 24° 292° (WNW) 13:56:00 145.980
